Tracking 22130 objects as of 21-Jan-2021
HD Live streaming from Space Station
objects crossing your sky now

ONEWEB-0144

Track ONEWEB-0144 now!
10-day predictions
ONEWEB-0144 is classified as:


NORAD ID: 47290
Int'l Code: 2020-100AJ
Perigee: 591.0 km
Apogee: 604.9 km
Inclination: 87.4 °
Period: 96.5 minutes
Semi major axis: 6968 km
RCS: Unknown
Launch date: December 18, 2020
Source: United Kingdom (UK)
Launch site: VOSTOCHNY COSMODROME (VOSTO)
aabbcc
Your satellite tracking list
Your tracking list is empty




NASA's NSSDC Master Catalog

Two Line Element Set (TLE):
1 47290U 20100AJ  21021.41667824 -.01374206  00000-0 -14685+0 0  9997
2 47290  87.3615  27.8350 0010019 151.0485 314.6598 14.92287494  5151
Source of the keplerian elements: AFSPC